Regional Weather Roundup
Issued by NWS Albany, NY

Home | Current Version | Previous Version | Graphics & Text | Print | Product List | Glossary Off
Versions: 1 2 3 4 5 6 7 8 9 10 11 12 13 14 15 16 17 18 19 20 21 22 23 24 25 26 27 28 29 30 31 32 33 34 35 36 37 38 39 40 41 42 43 44 45 46 47 48 49 50

458
ASUS41 KALY 261310
RWRALY

NEW YORK STATE HOURLY WEATHER ROUNDUP
NATIONAL WEATHER SERVICE ALBANY NY
900 AM EDT SUN MAR 26 2017

NOTE: "FAIR" INDICATES FEW OR NO CLOUDS BELOW 12,000 FEET WITH NO
SIGNIFICANT WEATHER AND/OR NO OBSTRUCTIONS TO VISIBILITY.

NYZ032-033-038>043-046>054-057>066-NYZ062>081-082-084-261400-
EAST


CITY           SKY/WX    TMP DP  RH WIND       PRES   REMARKS
ALBANY         CLOUDY    30  18  60 NE5       30.50S WCI  25
GLENS FALLS    CLOUDY    28  18  66 NE3       30.50S
POUGHKEEPSIE   MIX PCPN  32  31  96 N5        30.47R FOG     WCI  27
NEWBURGH       CLOUDY    34  32  93 VRB7      30.46R WCI  28
MONTGOMERY     CLOUDY    34  30  85 NE7       30.44R WCI  28
WHITE PLAINS   PTSUNNY   36  30  79 E8        30.44R WCI  30
ISLIP          LGT RAIN  37  35  92 NE9       30.45R WCI  30
NEW YORK CITY  CLOUDY    40  33  76 E15       30.45R WCI  32
CENTRAL PARK   CLOUDY    38  32  79 E13G21    30.47R WCI  30
$$

NYZ005>009-017-018-044>046-055-056-261400-
CENTRAL


CITY           SKY/WX    TMP DP  RH WIND       PRES   REMARKS
FULTON         LGT RAIN  33  26  75 SE8G20    30.32F WCI  26
SYRACUSE       LGT RAIN  33  25  72 E13       30.34F WCI  24
ROME           MIX PCPN  32  23  69 E16       30.42S WCI  21
ELMIRA         CLOUDY    39  34  82 E7        30.30F WCI  34
BINGHAMTON     CLOUDY    32  31  96 SE14      30.30S WCI  22
MONTICELLO     CLOUDY    30  28  93 CALM      30.41R
$$

NYZ026>034-041>043-087-261400-
NORTH


CITY           SKY/WX    TMP DP  RH WIND       PRES   REMARKS
WATERTOWN      MIX PCPN  32  27  81 E9        30.36F WCI  24
FORT DRUM      NOT AVBL
MASSENA        CLOUDY    23   8  52 NE17      30.49F WCI   9
SARANAC LAKE   CLOUDY    22  14  71 NE7       30.36S WCI  13
PLATTSBURGH    CLOUDY    21  13  71 NW3       30.51F
$$

NYZ001>004-010>016-019>021-085-261400-
WEST


CITY           SKY/WX    TMP DP  RH WIND       PRES   REMARKS
NIAGARA FALLS  MOSUNNY   40  35  83 E14       30.16F WCI  32
BUFFALO        CLOUDY    40  36  86 NE12      30.15F WCI  33
DUNKIRK        PTSUNNY   46  43  89 E3        30.11S
JAMESTOWN      CLOUDY    46  41  81 S8        30.12F
WELLSVILLE     FOG       39  38  96 SE9       30.21F VSB<1/4 WCI  33
ROCHESTER      CLOUDY    39  36  89 SE12      30.24F WCI  32
PENN YAN       LGT RAIN  40  35  83 SE7       30.27F
$$

             KEY
       WCI = WIND CHILL INDEX
       VSB = VISIBILITY
       HX  = HEAT INDEX
$$




USA.gov is the U.S. government's official web portal to all federal, state and local government web resources and services.